Location: Clover
(42.5131°N, 114.6874°W)
Time: 18:29:46
(UTC+00:00)

Transit 2A - Visible Passes

Search period start: 05 December 2025 00:00
Search period end: 15 December 2025 00:00
Orbit: 590 x 955 km, 66.7° (Epoch: 04 December)

Date Brightness Start Highest point End Pass type
(mag) Time Alt. Az. Time Alt. Az. Time Alt. Az.
05 Dec 9.2 12:42:44 10° SE 12:45:31 14° E 12:48:27 10° ENE visible
06 Dec 9.6 00:52:46 10° WNW 00:56:05 15° WSW 00:59:21 10° SW visible
06 Dec 6.5 13:46:11 10° SSW 13:51:25 69° ESE 13:57:17 10° NE visible
07 Dec 7.3 13:10:16 10° S 13:15:17 46° ESE 13:20:50 10° NE visible
08 Dec 8.0 12:34:39 10° SSE 12:39:14 30° ESE 12:44:14 10° NE visible
08 Dec 6.5 14:16:54 10° WSW 14:22:05 44° NW 14:27:48 10° NNE visible
09 Dec 8.6 11:59:28 10° SSE 12:03:16 20° ESE 12:07:20 10° ENE visible
09 Dec 6.2 13:40:21 10° SW 13:45:42 63° NW 13:51:38 10° NNE visible
10 Dec 9.0 11:25:04 10° SE 11:27:22 13° E 11:29:45 10° ENE visible
10 Dec 6.1 13:04:01 10° SSW 13:09:23 90° ESE 13:15:23 10° NNE visible
11 Dec 6.6 12:28:40 14° SSW 12:33:10 61° ESE 12:39:01 10° NE visible
11 Dec 7.2 14:12:07 10° W 14:16:46 26° NW 14:21:48 10° NNE visible
12 Dec 7.3 11:55:41 35° SE 11:57:04 41° ESE 12:02:32 10° NE visible
12 Dec 6.8 13:36:09 15° WSW 13:40:13 35° NW 13:45:44 10° NNE visible
13 Dec 8.1 11:21:57 26° E 11:21:57 26° E 11:25:52 10° NE visible
13 Dec 6.4 13:02:22 41° W 13:03:46 49° NW 13:09:36 10° NNE visible
14 Dec 8.9 10:47:47 13° ENE 10:47:47 13° ENE 10:48:50 10° ENE visible
14 Dec 6.3 12:28:12 62° N 12:28:12 62° N 12:33:25 10° NNE visible
14 Dec 7.8 14:08:36 12° WNW 14:11:42 17° NW 14:15:31 10° N visible
